Location: Unspecified
(0.0000°N, 0.0000°E)
Time: 16:17:29
(UTC+00:00)

deb Midas V - Pass Details

Date: 21 October 2024
Orbit: 2776 x 3384 km, 86.7° (Epoch: 04 November)

Event Time Altitude Azimuth Distance (km) Brightness Sun altitude
Rises 22:36:44 0° 169° (S) 6,849 ? -69.8°
Reaches altitude 10° 22:40:40 10° 165° (SSE) 5,889 ? -70.6°
Enters shadow 22:42:52 16° 162° (SSE) 5,378 ? -71.1°
